sat.trackr.live / text

‹ back to catalog

HAWK-8B

NORAD 59445 · 2024-066D

PAYLOAD ACTIVE UNKNOWN

§ Identity

Operator
Country
US
Launch date
2024-04-07
Launch site
AFETR
Launch vehicle
Mass (kg)
RCS (m²)

External: N2YO · Heavens-Above · Gunter

§ Orbital elements

Epoch: 2026-05-24T23:41:53.971008Z

Period
96.06 min
Inclination
45.6220°
Eccentricity
0.0003922
Mean motion
14.99022482 rev/d
Perigee alt
567.2 km
Apogee alt
572.6 km
Semi-major
6,948.1 km
B*
1.0349e-4
RAAN
38.4370°
Arg perigee
290.9152°
Mean anomaly
69.1309°
Rev number
11,634

§ Raw data

HAWK-8B1 59445U 24066D   26144.98743022  .00001042  00000+0  10349-3 0  99932 59445  45.6220  38.4370 0003922 290.9152  69.1309 14.99022482116341

JSON: /api/v1/satellites/59445 · /tle

For live sub-satellite position, see the globe view (requires WebGL).

§ Visibility from observer

Set your observer location to see the next 7 days of passes ≥ 10°. The values pass through the URL so the page stays shareable.

No JS? Fill the form by hand. The geolocation button needs JavaScript.